TimeEDT,TemperatureF,Dew PointF,Humidity,Sea Level PressureIn,VisibilityMPH,Wind Direction,Wind SpeedMPH,Gust SpeedMPH,PrecipitationIn,Events,Conditions,WindDirDegrees,DateUTC
12:53 AM,52.0,43.0,71,30.15,10.0,Calm,Calm,-,N/A,,Mostly Cloudy,0,2011-10-02 04:53:00
1:53 AM,48.9,42.1,77,30.15,10.0,Calm,Calm,-,N/A,,Partly Cloudy,0,2011-10-02 05:53:00
2:53 AM,48.0,42.1,80,30.14,10.0,Calm,Calm,-,N/A,,Clear,0,2011-10-02 06:53:00
3:53 AM,46.0,41.0,83,30.14,10.0,Calm,Calm,-,N/A,,Clear,0,2011-10-02 07:53:00
4:53 AM,46.0,41.0,83,30.14,10.0,NNW,3.5,-,N/A,,Clear,330,2011-10-02 08:53:00
5:53 AM,46.0,39.9,79,30.15,10.0,NNW,4.6,-,N/A,,Clear,340,2011-10-02 09:53:00
6:53 AM,44.1,39.9,85,30.15,10.0,NW,3.5,-,N/A,,Clear,310,2011-10-02 10:53:00
7:53 AM,44.1,39.9,85,30.16,10.0,NW,5.8,-,N/A,,Clear,320,2011-10-02 11:53:00
8:53 AM,48.9,39.9,71,30.18,10.0,NW,4.6,-,N/A,,Clear,320,2011-10-02 12:53:00
9:53 AM,54.0,37.9,55,30.19,10.0,NNE,15.0,-,N/A,,Clear,20,2011-10-02 13:53:00
10:53 AM,57.0,37.0,47,30.19,10.0,North,13.8,-,N/A,,Clear,360,2011-10-02 14:53:00
11:53 AM,59.0,37.0,44,30.19,10.0,NNE,9.2,17.3,N/A,,Clear,20,2011-10-02 15:53:00
12:53 PM,61.0,36.0,39,30.17,10.0,NNE,11.5,17.3,N/A,,Clear,20,2011-10-02 16:53:00
1:53 PM,64.0,35.1,34,30.14,10.0,NNW,10.4,-,N/A,,Clear,330,2011-10-02 17:53:00
2:53 PM,66.0,28.9,25,30.12,10.0,NNE,9.2,-,N/A,,Clear,30,2011-10-02 18:53:00
3:53 PM,66.9,30.9,26,30.11,10.0,NNE,9.2,16.1,N/A,,Clear,20,2011-10-02 19:53:00
4:53 PM,68.0,30.9,25,30.10,10.0,NNW,11.5,-,N/A,,Clear,330,2011-10-02 20:53:00
5:53 PM,66.9,30.9,26,30.11,10.0,NNW,9.2,-,N/A,,Clear,340,2011-10-02 21:53:00
6:53 PM,63.0,32.0,31,30.12,10.0,NW,11.5,-,N/A,,Clear,320,2011-10-02 22:53:00
7:53 PM,57.0,35.1,44,30.13,10.0,NW,4.6,-,N/A,,Clear,310,2011-10-02 23:53:00
8:53 PM,55.9,36.0,47,30.15,10.0,Calm,Calm,-,N/A,,Clear,0,2011-10-03 00:53:00
9:53 PM,55.9,37.0,49,30.16,10.0,Calm,Calm,-,N/A,,Clear,0,2011-10-03 01:53:00
10:53 PM,48.9,41.0,74,30.17,10.0,Calm,Calm,-,N/A,,Clear,0,2011-10-03 02:53:00
11:53 PM,48.0,39.9,74,30.17,10.0,Calm,Calm,-,N/A,,Clear,0,2011-10-03 03:53:00